Location: South Tamworth Observatory
(43.8246°N, 71.3026°W)
Time: 19:11:46
(UTC-05:00)

Amateur Radio Satellites - All Passes

Search period start: 22 November 2017 18:41
Search period end: 23 November 2017 18:41
Location: South Tamworth Observatory, 43.8246°N, 71.3026°W

Satellite Date Start Highest point End Downlink Frequencies (MHz)
Time Altitude Azimuth
ISS 22 Nov 18:54:09 18:54:48 10° 130° (SE) 18:55:27 437.550
AO-73 22 Nov 19:00:54 19:05:09 66° 74° (ENE) 19:09:19 145.935
CUBEBUG 2 22 Nov 19:07:36 19:11:36 30° 264° (W) 19:15:32 437.445
Oscar 11 22 Nov 19:15:25 19:19:39 64° 74° (ENE) 19:23:55 .
Max Valier Satellite 22 Nov 19:27:43 19:28:43 11° 63° (ENE) 19:29:44 145.860
XW-2A 22 Nov 19:30:24 19:32:59 21° 265° (W) 19:35:33 145.665 - 145.685
FO-29 22 Nov 19:30:57 19:37:59 35° 92° (E) 19:44:36 435.910
NO-84 22 Nov 19:33:00 19:36:35 27° 22° (NNE) 19:40:15 435.350 FM
STRAND 1 22 Nov 19:33:12 19:38:20 81° 287° (WNW) 19:43:26 437.568
RS-15 22 Nov 19:34:54 19:47:06 62° 313° (NW) 19:59:12 29.354- 29.394
nSIGHT-1 22 Nov 19:38:25 19:41:21 33° 139° (SE) 19:44:18 .
SO-50 22 Nov 19:44:27 19:45:23 11° 107° (ESE) 19:46:20 436.795
ZACube-1 22 Nov 19:47:29 19:51:24 34° 263° (W) 19:55:17 437.345
AAUSAT CUBESAT 2 22 Nov 20:00:48 20:03:25 16° 269° (W) 20:06:02 437.432
UWE-3 22 Nov 20:02:53 20:05:15 14° 269° (W) 20:07:35 435.000/436.395/437.385
HO-68 22 Nov 20:06:10 20:08:44 12° 275° (W) 20:11:18 435.675
DELFI C3 22 Nov 20:13:51 20:17:44 57° 74° (ENE) 20:21:39 145.870
ISS 22 Nov 20:27:30 20:30:46 79° 146° (SSE) 20:34:03 437.550
AO-73 22 Nov 20:40:20 20:41:47 11° 271° (W) 20:43:14 145.935
EO-88 22 Nov 20:52:41 20:56:17 81° 77° (ENE) 20:59:56 145.990 - 145.960
Oscar 11 22 Nov 20:54:27 20:56:12 12° 271° (W) 20:57:57 .
Max Valier Satellite 22 Nov 20:58:27 21:02:02 57° 259° (W) 21:05:40 145.860
NO-84 22 Nov 21:10:05 21:14:21 81° 221° (SW) 21:18:37 435.350 FM
LO-87 22 Nov 21:12:46 21:15:14 18° 67° (ENE) 21:17:42 145.935 - 145.965
nSIGHT-1 22 Nov 21:14:30 21:17:33 38° 337° (NNW) 21:20:36 .
STRAND 1 22 Nov 21:14:50 21:16:41 12° 304° (WNW) 21:18:31 437.568
FO-29 22 Nov 21:15:38 21:23:14 55° 292° (WNW) 21:30:25 435.910
SO-50 22 Nov 21:20:38 21:25:06 88° 314° (NW) 21:29:38 436.795
O/OREOS (USA 219) 22 Nov 21:33:32 21:37:24 27° 56° (NE) 21:41:14 437.305
UNISAT 6 22 Nov 21:38:29 21:42:47 78° 104° (ESE) 21:47:01 437.425
TIGRISAT 22 Nov 21:42:21 21:46:38 78° 102° (ESE) 21:50:52 435.000
DELFI C3 22 Nov 21:51:20 21:52:50 12° 271° (W) 21:54:20 145.870
RS-15 22 Nov 21:52:23 22:02:45 30° 344° (NNW) 22:12:52 29.354- 29.394
ISS 22 Nov 22:04:41 22:07:31 26° 345° (NNW) 22:10:21 437.550
PRISM 22 Nov 22:05:25 22:09:30 50° 100° (E) 22:13:31 437.425
ESTCUBE 1 22 Nov 22:19:10 22:23:39 80° 74° (ENE) 22:28:10 437.505/2401.250
VELOX 1 22 Nov 22:33:07 22:36:19 20° 64° (ENE) 22:39:31 145.980
EO-79 22 Nov 22:41:26 22:43:43 14° 91° (E) 22:45:59 145.935-145.965
NANOSAT C BR1 22 Nov 22:43:40 22:45:40 13° 90° (E) 22:47:41 145.865
LO-87 22 Nov 22:45:09 22:48:24 31° 263° (W) 22:51:40 145.935 - 145.965
NO-84 22 Nov 22:49:10 22:51:07 13° 237° (WSW) 22:53:03 435.350 FM
nSIGHT-1 22 Nov 22:51:56 22:54:23 20° 357° (N) 22:56:51 .
POLYITAN 1 22 Nov 22:56:32 22:59:43 21° 94° (E) 23:02:52 437.675
FO-29 22 Nov 23:03:13 23:06:30 13° 313° (NW) 23:09:44 435.910
SO-50 22 Nov 23:03:25 23:06:14 16° 325° (NW) 23:09:04 436.795
AIST 2D 22 Nov 23:09:19 23:12:52 82° 283° (WNW) 23:16:24 435.315
O/OREOS (USA 219) 22 Nov 23:12:45 23:16:51 34° 255° (WSW) 23:20:55 437.305
PCSat 22 Nov 23:13:23 23:18:32 47° 114° (ESE) 23:23:43 145.827
DX 1 22 Nov 23:14:11 23:16:10 13° 60° (ENE) 23:18:10 434.975-435.025
SPROUT 22 Nov 23:15:05 23:19:21 77° 76° (ENE) 23:23:39 437.525
UNISAT 6 22 Nov 23:17:33 23:18:51 11° 300° (WNW) 23:20:10 437.425
QB50P2 22 Nov 23:19:24 23:23:24 41° 99° (E) 23:27:21 145.880/145.840
TIGRISAT 22 Nov 23:21:25 23:22:41 11° 300° (WNW) 23:23:56 435.000
PRISM 22 Nov 23:41:48 23:44:21 16° 297° (WNW) 23:46:54 437.425
ISS 22 Nov 23:42:09 23:44:44 21° 6° (N) 23:47:17 437.550
UKube-1 22 Nov 23:51:04 23:54:07 19° 64° (ENE) 23:57:11 .
ESTCUBE 1 23 Nov 00:00:15 00:01:00 10° 272° (W) 00:01:46 437.505/2401.250
50 SAT 23 Nov 00:00:15 00:03:09 31° 71° (ENE) 00:06:05 437.505
DUCHIFAT 1 23 Nov 00:05:52 00:10:03 87° 288° (WNW) 00:14:13 145.980
VELOX 1 23 Nov 00:08:11 00:12:26 45° 261° (W) 00:16:44 145.980
RS-15 23 Nov 00:09:51 00:20:14 31° 19° (NNE) 00:30:09 29.354- 29.394
EO-79 23 Nov 00:15:42 00:19:46 52° 288° (WNW) 00:23:50 145.935-145.965
NANOSAT C BR1 23 Nov 00:17:38 00:21:43 56° 287° (WNW) 00:25:48 145.865
nSIGHT-1 23 Nov 00:28:29 00:31:19 28° 17° (NNE) 00:34:09 .
POLYITAN 1 23 Nov 00:31:45 00:35:34 35° 290° (WNW) 00:39:23 437.675
Oscar 19 23 Nov 00:45:50 00:50:31 34° 97° (E) 00:55:12 437.125/150
DX 1 23 Nov 00:47:24 00:51:45 72° 256° (WSW) 00:56:09 434.975-435.025
BUGSAT 1 23 Nov 00:50:59 00:55:01 72° 102° (ESE) 00:59:00 437.445
QB50P2 23 Nov 00:55:55 00:58:53 19° 295° (WNW) 01:01:51 145.880/145.840
PCSat 23 Nov 00:57:21 01:02:07 30° 313° (NW) 01:06:54 145.827
BEESAT 3 23 Nov 00:58:45 01:01:19 17° 111° (ESE) 01:03:54 437.485
ISS 23 Nov 01:18:35 01:21:46 46° 25° (NNE) 01:24:56 437.550
UKube-1 23 Nov 01:25:41 01:29:48 44° 261° (W) 01:33:58 .
Gurwin Techsat 1B 23 Nov 01:26:02 01:31:18 57° 101° (E) 01:36:31 435.225
BEESAT 23 Nov 01:28:32 01:32:40 30° 66° (ENE) 01:36:48 436.000
MOZHAYETS 4 23 Nov 01:33:27 01:37:41 39° 70° (ENE) 01:41:56
50 SAT 23 Nov 01:33:41 01:35:21 13° 267° (W) 01:37:01 437.505
ITUPSAT 1 23 Nov 01:39:16 01:43:39 37° 68° (ENE) 01:48:02 437.325
M-CUBED/EXP-1 PRIME 23 Nov 01:50:05 01:53:31 21° 98° (E) 01:56:58 437.505
CUBESAT XI-V 23 Nov 01:51:53 01:54:38 16° 62° (ENE) 01:57:24 437.345
nSIGHT-1 23 Nov 02:04:34 02:07:45 61° 216° (SW) 02:10:53 .
AO-7 23 Nov 02:06:51 02:13:22 24° 93° (E) 02:19:50 .
BEESAT 2 23 Nov 02:13:48 02:17:19 29° 115° (ESE) 02:20:52 435.950
RS-15 23 Nov 02:23:32 02:35:30 68° 49° (NE) 02:46:45 29.354- 29.394
Oscar 19 23 Nov 02:25:13 02:29:46 32° 294° (WNW) 02:34:18 437.125/150
BUGSAT 1 23 Nov 02:28:40 02:29:46 11° 300° (WNW) 02:30:53 437.445
BEESAT 3 23 Nov 02:34:36 02:38:29 49° 309° (NW) 02:42:24 437.485
AO-85 23 Nov 02:38:44 02:41:32 19° 112° (ESE) 02:44:24 145.980
ITAMSAT 1 23 Nov 02:42:51 02:47:07 25° 94° (E) 02:51:22 435.822/435.867
ISS 23 Nov 02:55:19 02:58:07 26° 223° (SW) 03:00:54 437.550
YUBILEINY 23 Nov 02:55:53 02:57:23 11° 70° (ENE) 02:58:54 435.215
BEESAT 23 Nov 03:06:06 03:10:21 32° 263° (W) 03:14:38 436.000
Gurwin Techsat 1B 23 Nov 03:06:53 03:10:48 21° 299° (WNW) 03:14:43 435.225
MOZHAYETS 4 23 Nov 03:11:27 03:14:58 22° 267° (W) 03:18:30
KKS-1 23 Nov 03:11:32 03:15:08 24° 65° (ENE) 03:18:44 437.445
ITUPSAT 1 23 Nov 03:17:34 03:21:32 26° 265° (W) 03:25:30 437.325
M-CUBED/EXP-1 PRIME 23 Nov 03:23:39 03:28:02 47° 294° (WNW) 03:32:29 437.505
CUBESAT XI-V 23 Nov 03:26:58 03:31:30 61° 259° (W) 03:36:06 437.345
STARS 23 Nov 03:30:56 03:33:40 16° 62° (ENE) 03:36:24 437.465
BEESAT 2 23 Nov 03:51:25 03:55:00 30° 314° (NW) 03:58:36 435.950
AO-7 23 Nov 03:58:32 04:06:53 77° 292° (WNW) 04:15:13 .
DOVE 4 23 Nov 04:09:36 04:14:14 33° 94° (E) 04:18:38 437.250
SO-50 23 Nov 04:10:44 04:14:11 20° 39° (NE) 04:17:40 436.795
AO-85 23 Nov 04:17:53 04:21:36 40° 311° (NW) 04:25:29 145.980
ITAMSAT 1 23 Nov 04:21:50 04:26:44 43° 292° (WNW) 04:31:37 435.822/435.867
RS-15 23 Nov 04:36:48 04:47:11 39° 253° (WSW) 04:57:08 29.354- 29.394
YUBILEINY 23 Nov 04:43:37 04:52:09 60° 91° (E) 05:00:45 435.215
KKS-1 23 Nov 04:47:22 04:51:29 36° 262° (W) 04:55:39 437.445
XW-2C 23 Nov 04:48:55 04:50:44 13° 91° (E) 04:52:32 145.795 - 145.815
LilacSat-2 23 Nov 04:53:03 04:55:27 16° 92° (E) 04:57:51 437.200
XW-2F 23 Nov 04:57:15 04:59:30 15° 92° (E) 05:01:45 145.980 - 146.000
STARS 23 Nov 05:05:12 05:09:33 56° 259° (W) 05:13:56 437.465
STRAND 1 23 Nov 05:12:43 05:16:39 23° 63° (ENE) 05:20:37 437.568
KAITUO 1B 23 Nov 05:20:50 05:23:49 22° 94° (E) 05:26:47 145.475/437.950
CUTE 1.7 + AOD 2 23 Nov 05:39:23 05:41:22 13° 90° (E) 05:43:19 437.475
HO-68 23 Nov 05:39:53 05:45:09 21° 91° (E) 05:50:22 435.675
XW-2D 23 Nov 05:40:44 05:44:29 55° 100° (E) 05:48:14 145.860 - 145.880
FO-29 23 Nov 05:45:41 05:50:25 20° 53° (NE) 05:55:25 435.910
DOVE 4 23 Nov 05:47:16 05:51:50 32° 293° (WNW) 05:56:13 437.250
SO-50 23 Nov 05:50:29 05:55:06 70° 239° (WSW) 05:59:47 436.795
AO-7 23 Nov 05:52:48 05:58:22 20° 313° (NW) 06:03:58 .
XW-2B 23 Nov 05:55:36 05:59:26 81° 103° (ESE) 06:03:15 145.730 - 145.750
NUDT-PHONESAT 23 Nov 06:01:08 06:04:50 64° 101° (E) 06:08:32 437.300
SEEDS 23 Nov 06:05:12 06:07:41 15° 91° (E) 06:10:10 437.485
CUTE-I 23 Nov 06:08:35 06:13:59 74° 103° (ESE) 06:19:19 437.470
PCSat 23 Nov 06:18:02 06:20:15 12° 31° (NNE) 06:22:28 145.827
XW-2C 23 Nov 06:21:28 06:25:09 47° 287° (WNW) 06:28:50 145.795 - 145.815
LilacSat-2 23 Nov 06:26:16 06:29:52 39° 288° (WNW) 06:33:28 437.200
XW-2F 23 Nov 06:30:12 06:33:46 40° 288° (WNW) 06:37:21 145.980 - 146.000
YUBILEINY 23 Nov 06:41:47 06:49:27 33° 293° (WNW) 06:57:12 435.215
AO-73 23 Nov 06:49:51 06:50:41 10° 89° (E) 06:51:32 145.935
XW-2A 23 Nov 06:50:06 06:52:33 18° 94° (E) 06:54:59 145.665 - 145.685
STRAND 1 23 Nov 06:50:30 06:55:29 50° 260° (W) 07:00:31 437.568
KAITUO 1B 23 Nov 06:54:33 06:57:46 27° 290° (WNW) 07:00:59 145.475/437.950
CUBEBUG 2 23 Nov 06:56:19 07:00:22 49° 99° (E) 07:04:23 437.445
Oscar 11 23 Nov 07:03:44 07:04:43 11° 88° (E) 07:05:43 .
CUTE 1.7 + AOD 2 23 Nov 07:13:21 07:17:33 60° 286° (WNW) 07:21:46 437.475
XW-2D 23 Nov 07:16:33 07:18:12 12° 297° (WNW) 07:19:50 145.860 - 145.880
HO-68 23 Nov 07:26:22 07:33:34 76° 289° (WNW) 07:40:42 435.675
FO-29 23 Nov 07:27:29 07:34:15 85° 71° (ENE) 07:41:50 435.910
ZACube-1 23 Nov 07:33:46 07:37:39 37° 98° (E) 07:41:33 437.345
NUDT-PHONESAT 23 Nov 07:37:29 07:38:09 10° 298° (WNW) 07:38:49 437.300
AAUSAT CUBESAT 2 23 Nov 07:39:20 07:43:33 71° 102° (ESE) 07:47:42 437.432
SEEDS 23 Nov 07:39:31 07:43:39 50° 287° (WNW) 07:47:45 437.485
UWE-3 23 Nov 07:48:25 07:52:34 76° 284° (WNW) 07:56:42 435.000/436.395/437.385
CUTE-I 23 Nov 07:50:00 07:53:24 17° 301° (WNW) 07:56:48 437.470
PCSat 23 Nov 07:59:40 08:04:58 51° 53° (NE) 08:10:15 145.827
XW-2A 23 Nov 08:22:25 08:25:13 25° 290° (WNW) 08:28:01 145.665 - 145.685
AO-73 23 Nov 08:23:15 08:27:22 68° 286° (WNW) 08:31:30 145.935
FALCONSAT 3 23 Nov 08:25:14 08:26:57 13° 161° (SSE) 08:28:41 435.103
Max Valier Satellite 23 Nov 08:28:41 08:29:51 11° 90° (E) 08:31:01 145.860
CUBEBUG 2 23 Nov 08:34:07 08:36:35 16° 297° (WNW) 08:39:04 437.445
Oscar 11 23 Nov 08:37:01 08:41:22 74° 284° (WNW) 08:45:40 .
UNISAT 6 23 Nov 08:37:57 08:42:29 79° 76° (ENE) 08:46:58 437.425
TIGRISAT 23 Nov 08:41:39 08:46:12 79° 76° (ENE) 08:50:40 435.000
PRISM 23 Nov 08:55:30 08:59:24 42° 71° (ENE) 09:03:20 437.425
ZACube-1 23 Nov 09:10:40 09:13:42 20° 294° (WNW) 09:16:43 437.345
BEESAT 3 23 Nov 09:13:02 09:15:53 19° 41° (NE) 09:18:42 437.485
FO-29 23 Nov 09:15:39 09:20:17 19° 275° (W) 09:25:14 435.910
HO-68 23 Nov 09:15:53 09:20:08 17° 309° (NW) 09:24:22 435.675
AAUSAT CUBESAT 2 23 Nov 09:16:48 09:18:24 12° 299° (WNW) 09:20:00 437.432
DELFI C3 23 Nov 09:23:38 09:27:39 79° 104° (ESE) 09:31:37 145.870
EO-79 23 Nov 09:35:26 09:37:39 14° 62° (ENE) 09:39:52 145.935-145.965
NANOSAT C BR1 23 Nov 09:37:23 09:39:20 13° 61° (ENE) 09:41:16 145.865
PCSat 23 Nov 09:43:41 09:48:03 25° 252° (WSW) 09:52:23 145.827
AIST 2D 23 Nov 09:44:26 09:47:40 39° 73° (ENE) 09:50:56 435.315
POLYITAN 1 23 Nov 09:50:26 09:53:29 20° 65° (ENE) 09:56:33 437.675
EO-88 23 Nov 09:53:08 09:56:49 88° 103° (ESE) 10:00:28 145.990 - 145.960
Max Valier Satellite 23 Nov 10:00:23 10:03:58 50° 286° (WNW) 10:07:31 145.860
FALCONSAT 3 23 Nov 10:02:28 10:05:21 22° 176° (S) 10:08:14 435.103
LO-87 23 Nov 10:10:56 10:13:15 16° 93° (E) 10:15:34 145.935 - 145.965
ESTCUBE 1 23 Nov 10:11:26 10:14:07 15° 91° (E) 10:16:48 437.505/2401.250
QB50P2 23 Nov 10:12:57 10:16:51 36° 70° (ENE) 10:20:44 145.880/145.840
UNISAT 6 23 Nov 10:18:41 10:19:42 11° 271° (W) 10:20:43 437.425
TIGRISAT 23 Nov 10:22:22 10:23:23 11° 271° (W) 10:24:24 435.000
BEESAT 2 23 Nov 10:29:42 10:33:17 29° 46° (NE) 10:36:50 435.950
PRISM 23 Nov 10:32:05 10:34:51 17° 267° (W) 10:37:38 437.425
BEESAT 3 23 Nov 10:49:52 10:53:44 54° 240° (WSW) 10:57:31 437.485
DUCHIFAT 1 23 Nov 10:58:17 11:02:29 80° 75° (ENE) 11:06:42 145.980
SPROUT 23 Nov 11:01:23 11:02:51 12° 89° (E) 11:04:19 437.525
AO-85 23 Nov 11:06:31 11:10:43 33° 47° (NE) 11:15:12 145.980
EO-79 23 Nov 11:08:43 11:12:55 60° 259° (W) 11:17:06 145.935-145.965
NANOSAT C BR1 23 Nov 11:10:18 11:14:29 66° 258° (WSW) 11:18:42 145.865
Gurwin Techsat 1B 23 Nov 11:11:25 11:14:29 16° 58° (ENE) 11:17:34 435.225
AIST 2D 23 Nov 11:19:28 11:21:02 13° 269° (W) 11:22:37 435.315
AO-7 23 Nov 11:23:08 11:24:10 10° 36° (NE) 11:25:12 .
POLYITAN 1 23 Nov 11:25:00 11:29:00 40° 262° (W) 11:33:00 437.675
FALCONSAT 3 23 Nov 11:41:13 11:43:50 18° 191° (SSW) 11:46:27 435.103
BUGSAT 1 23 Nov 11:41:17 11:45:24 58° 74° (ENE) 11:49:30 437.445
LO-87 23 Nov 11:43:34 11:46:44 31° 289° (WNW) 11:49:52 145.935 - 145.965
ESTCUBE 1 23 Nov 11:46:49 11:51:15 56° 288° (WNW) 11:55:42 437.505/2401.250
O/OREOS (USA 219) 23 Nov 11:47:36 11:51:10 23° 102° (ESE) 11:54:46 437.305
QB50P2 23 Nov 11:49:31 11:52:43 21° 267° (W) 11:55:56 145.880/145.840
VELOX 1 23 Nov 11:56:44 12:00:39 30° 96° (E) 12:04:33 145.980
Oscar 19 23 Nov 12:03:50 12:08:49 57° 71° (ENE) 12:13:51 437.125/150
BEESAT 2 23 Nov 12:07:27 12:10:58 29° 245° (WSW) 12:14:26 435.950
SPROUT 23 Nov 12:34:57 12:39:10 66° 286° (WNW) 12:43:21 437.525
DX 1 23 Nov 12:35:06 12:38:03 17° 92° (E) 12:40:59 434.975-435.025
M-CUBED/EXP-1 PRIME 23 Nov 12:36:58 12:40:01 25° 61° (ENE) 12:43:17 437.505
AO-85 23 Nov 12:46:49 12:51:11 37° 243° (WSW) 12:55:50 145.980
50 SAT 23 Nov 12:48:04 12:50:37 21° 96° (E) 12:53:08 437.505
Gurwin Techsat 1B 23 Nov 12:48:26 12:53:45 81° 256° (WSW) 12:59:07 435.225
AO-7 23 Nov 13:07:07 13:14:38 40° 59° (ENE) 13:22:11 .
UKube-1 23 Nov 13:11:21 13:14:59 26° 96° (E) 13:18:36 .
BUGSAT 1 23 Nov 13:19:14 13:21:07 13° 270° (W) 13:22:58 437.445
O/OREOS (USA 219) 23 Nov 13:26:00 13:30:20 40° 300° (WNW) 13:34:41 437.305
VELOX 1 23 Nov 13:33:13 13:37:01 28° 293° (WNW) 13:40:48 145.980
Oscar 19 23 Nov 13:45:00 13:48:30 18° 269° (W) 13:52:02 437.125/150
ITAMSAT 1 23 Nov 14:01:46 14:06:44 45° 69° (ENE) 14:11:42 435.822/435.867
NO-84 23 Nov 14:02:30 14:06:03 58° 136° (SE) 14:09:55 435.350 FM
DX 1 23 Nov 14:10:15 14:14:28 46° 289° (WNW) 14:18:38 434.975-435.025
M-CUBED/EXP-1 PRIME 23 Nov 14:11:17 14:14:20 25° 260° (W) 14:17:38 437.505
50 SAT 23 Nov 14:20:11 14:22:34 19° 292° (WNW) 14:24:57 437.505
Gurwin Techsat 1B 23 Nov 14:34:18 14:34:30 10° 274° (W) 14:34:43 435.225
UKube-1 23 Nov 14:47:11 14:51:00 30° 292° (WNW) 14:54:46 .
YUBILEINY 23 Nov 14:52:18 15:00:01 32° 67° (ENE) 15:07:41 435.215
AO-7 23 Nov 14:59:12 15:07:12 52° 258° (WSW) 15:15:16 .
MOZHAYETS 4 23 Nov 15:03:31 15:08:06 78° 103° (ESE) 15:12:40
BEESAT 23 Nov 15:04:00 15:08:42 57° 101° (E) 15:13:21 436.000
DOVE 4 23 Nov 15:15:23 15:20:05 38° 68° (ENE) 15:24:57 437.250
ITUPSAT 1 23 Nov 15:15:26 15:20:12 72° 102° (ESE) 15:24:57 437.325
CUBESAT XI-V 23 Nov 15:22:10 15:26:17 29° 95° (E) 15:30:23 437.345
LilacSat-2 23 Nov 15:38:22 15:38:46 10° 62° (ENE) 15:39:10 437.200
NO-84 23 Nov 15:40:17 15:43:38 29° 337° (NNW) 15:47:13 435.350 FM
ITAMSAT 1 23 Nov 15:42:09 15:46:22 24° 266° (W) 15:50:37 435.822/435.867
CUTE-I 23 Nov 15:53:44 15:57:34 20° 61° (ENE) 16:01:25 437.470
KAITUO 1B 23 Nov 16:03:04 16:04:50 13° 64° (ENE) 16:06:36 145.475/437.950
HO-68 23 Nov 16:11:02 16:16:01 21° 54° (NE) 16:21:01 435.675
XW-2D 23 Nov 16:23:07 16:26:25 31° 70° (ENE) 16:29:45 145.860 - 145.880
CUTE 1.7 + AOD 2 23 Nov 16:34:14 16:35:40 12° 61° (ENE) 16:37:07 437.475
KKS-1 23 Nov 16:36:31 16:40:40 37° 98° (E) 16:44:47 437.445
XW-2B 23 Nov 16:37:46 16:41:19 43° 72° (ENE) 16:44:54 145.730 - 145.750
NUDT-PHONESAT 23 Nov 16:41:14 16:44:31 33° 71° (ENE) 16:47:49 437.300
MOZHAYETS 4 23 Nov 16:42:37 16:44:37 13° 300° (WNW) 16:46:37
BEESAT 23 Nov 16:42:50 16:46:02 18° 298° (WNW) 16:49:12 436.000
RS-15 23 Nov 16:48:34 16:59:13 37° 105° (ESE) 17:09:48 29.354- 29.394
YUBILEINY 23 Nov 16:48:42 16:57:23 62° 268° (W) 17:06:00 435.215
DOVE 4 23 Nov 16:53:23 16:57:47 29° 267° (W) 17:02:22 437.250
STARS 23 Nov 16:53:34 16:57:02 23° 94° (E) 17:00:29 437.465
ITUPSAT 1 23 Nov 16:54:50 16:57:26 15° 300° (WNW) 17:00:03 437.325
SEEDS 23 Nov 16:58:53 17:00:49 13° 62° (ENE) 17:02:45 437.485
CUBESAT XI-V 23 Nov 16:59:28 17:03:36 31° 292° (WNW) 17:07:42 437.345
XW-2C 23 Nov 17:03:20 17:07:04 86° 258° (WSW) 17:10:50 145.795 - 145.815
LilacSat-2 23 Nov 17:08:45 17:12:28 68° 259° (W) 17:16:14 437.200
XW-2F 23 Nov 17:11:31 17:15:13 73° 258° (WSW) 17:18:57 145.980 - 146.000
UWE-3 23 Nov 17:13:31 17:14:37 11° 61° (ENE) 17:15:42 435.000/436.395/437.385
NO-84 23 Nov 17:19:20 17:22:02 17° 358° (N) 17:24:49 435.350 FM
CUTE-I 23 Nov 17:31:50 17:37:08 62° 259° (WSW) 17:42:29 437.470
KAITUO 1B 23 Nov 17:34:50 17:38:24 47° 261° (W) 17:42:00 145.475/437.950
AO-73 23 Nov 17:46:54 17:48:05 11° 61° (ENE) 17:49:16 145.935
CUBEBUG 2 23 Nov 17:55:01 17:59:25 49° 73° (ENE) 18:03:41 437.445
HO-68 23 Nov 17:55:37 18:02:50 89° 247° (WSW) 18:10:06 435.675
XW-2D 23 Nov 17:57:58 18:00:39 19° 267° (W) 18:03:21 145.860 - 145.880
Oscar 11 23 Nov 18:00:24 18:01:25 11° 60° (ENE) 18:02:27 .
CUTE 1.7 + AOD 2 23 Nov 18:06:42 18:10:53 74° 258° (WSW) 18:15:07 437.475
KKS-1 23 Nov 18:13:29 18:17:01 23° 295° (WNW) 18:20:32 437.445
XW-2B 23 Nov 18:13:51 18:15:43 13° 269° (W) 18:17:35 145.730 - 145.750
NUDT-PHONESAT 23 Nov 18:16:03 18:18:27 17° 267° (W) 18:20:52 437.300
STARS 23 Nov 18:29:26 18:33:27 35° 291° (WNW) 18:37:26 437.465
AAUSAT CUBESAT 2 23 Nov 18:30:12 18:34:12 52° 73° (ENE) 18:38:16 437.432
ZACube-1 23 Nov 18:30:36 18:34:30 35° 70° (ENE) 18:38:20 437.345
SEEDS 23 Nov 18:31:50 18:35:57 64° 259° (W) 18:40:08 437.485
